Location: La Bastide
(43.1661°N, 1.2755°E)
Time: 18:40:27
(UTC+00:00)

ISS - Pass Details

Date: 19 February 2026
Orbit: 416 x 427 km, 51.6° (Epoch: 6 March)

Event Time Altitude Azimuth Distance (km) Brightness Sun altitude
Exits shadow 04:42:44 30° 28° (NNE) 777 -2.2 -23.3°
Drops below altitude 10° 04:44:44 10° 49° (NE) 1,495 -0.2 -23.0°
Sets 04:46:53 0° 56° (NE) 2,360 1.1 -22.6°
